User: anonymous
Location: Unspecified
(0.0000°N, 0.0000°E)
Time: 01:36:15
(UTC+02:00)
Language:

Cosmos 1125 Rocket - Orbit

View from above orbital plane
View from above orbital plane
View from above satellite
View from above satellite

Ground track
Ground track

The orbit data is extracted from the following two-line orbital elements,

1 11511U 79078B   14233.88085084  .00000030  00000-0  19152-4 0  8640
2 11511 074.0371 048.6563 0015685 187.6199 276.8820 14.36436779830678
Epoch (UTC): 21 August 2014 21:08:25
Eccentricity: 0.0015685
inclination: 74.0371°
perigee height: 759 km
apogee height: 781 km
right ascension of ascending node: 48.6563°
argument of perigee: 187.6199°
revolutions per day: 14.36436779
mean anomaly at epoch: 276.8820°
orbit number at epoch: 83067

The dashed part of the orbit path shows where the satellite is in the earth's shadow,  

DLR